Regional Weather Roundup
Issued by NWS

Home | Current Version | Previous Version | Graphics & Text | Print | Product List | Glossary Off
Versions: 1 2 3 4 5 6 7 8 9 10 11 12 13 14 15 16 17 18 19 20 21 22 23 24 25 26 27 28 29 30 31 32 33 34 35 36 37 38 39 40 41 42 43 44 45 46 47 48 49 50

000
ASUS43 KDMX 192201
RWRIA

WEATHER ROUNDUP FOR IOWA
NATIONAL WEATHER SERVICE DES MOINES IA
400 PM CST MON FEB 19 2018

NOTE: "FAIR" INDICATES FEW OR NO CLOUDS BELOW 12,000 FEET WITH NO
SIGNIFICANT WEATHER AND/OR OBSTRUCTIONS TO VISIBILITY.

* - THESE STATIONS ARE NOT NWS STATIONS...THUS NOT UNDER NWS
QUALITY CONTROL.  THEY ALSO DO NOT REPORT WEATHER SUCH
AS PRECIPITATION OR FOG.

IAZ001>003-012>014-020>022-031>034-043>046-192300-
   NORTHWEST IOWA

CITY           SKY/WX    TMP DP  RH WIND       PRES   REMARKS
CARROLL *      CLOUDY    25  25 100 NW16      29.78R FOG     WCI  12
CHEROKEE *     CLOUDY    20  19  98 N9        29.84R FOG     WCI   9
DENISON *      MOSUNNY   23  23 100 N12       29.82R WCI  12
LE MARS *      PTSUNNY   19  18  93 MISG      29.86R FOG
ORANGE CITY *  CLOUDY    19  19 100 N12G18    29.83R FOG     WCI   7
SHELDON *      PTSUNNY   19  18  93 MISG      29.80S FOG
SIOUX CITY     CLOUDY    20  17  88 N15       29.87R WCI   6
SPENCER        MIX PCPN  20  18  92 N21       29.80S VSB 1   WCI   4
STORM LAKE *   SUNNY     19  19 100 MISG      29.80R FOG
$$

IAZ055>058-069>071-079>083-090>094-192300-
   SOUTHWEST IOWA

CITY           SKY/WX    TMP DP  RH WIND       PRES   REMARKS
ATLANTIC *     CLOUDY    27  27 100 N13       29.79R WCI  16
AUDUBON *      CLOUDY    27  23  86 NW7       29.78R WCI  19
CLARINDA *     CLOUDY    30  30 100 N10       29.81R WCI  21
COUNCIL BLFS * CLOUDY    23  23 100 NW16      29.81R WCI  10
CRESTON *      CLOUDY    30  30 100 NW14      29.77R FOG     WCI  20
HARLAN  *      CLOUDY    25  25 100 NW15      29.83R WCI  12
LAMONI         CLOUDY    34  32  92 NW15      29.75R WCI  24
RED OAK *      CLOUDY    27  27 100 N9G16     29.80S WCI  17
SHENANDOAH *   CLOUDY    27  27 100 NW10      29.83R WCI  17
$$

IAZ047>049-059>061-072>074-084-192300-
   CENTRAL IOWA

CITY           SKY/WX    TMP DP  RH WIND       PRES   REMARKS
AMES           CLOUDY    33  32  96 NW13      29.72R FOG     WCI  24
ANKENY *       CLOUDY    34  32  93 W10       29.75R FOG     WCI  26
BOONE *        FOG       32  32 100 NW12      29.72R VSB 3/4 WCI  23
CHARITON *     CLOUDY    36  36 100 NW10      29.73R FOG     WCI  28
DES MOINES     CLOUDY    33  32  96 W13       29.75R WCI  24
GRINNELL*      FOG       38  37  97 W10       29.70S VSB 1/4 WCI  31
KNOXVILLE *    FOG       36  36 100 W13       29.72R VSB 1   WCI  27
MARSHALLTOWN   FOG       36  36 100 W7        29.69R VSB 1/2 WCI  30
NEWTON *       FOG       36  36 100 W14       29.71R VSB 1/2 WCI  27
PELLA *        FOG       36  36  98 W8        29.74R VSB 1   WCI  30
$$

IAZ004>006-015-016-023>025-035-036-192300-
   NORTH CENTRAL IOWA

CITY           SKY/WX    TMP DP  RH WIND       PRES   REMARKS
CLARION *      CLOUDY    32  32 100 N9        29.72S FOG     WCI  24
ESTHERVILLE    CLOUDY    19  18  95 MISG      29.80R FOG
FORT DODGE *   CLOUDY    27  26  96 VRB7      29.76R FOG     WCI  19
MASON CITY     CLOUDY    31  30  96 N14       29.71F FOG     WCI  21
FOREST CITY *  CLOUDY    30  30 100 N7        29.72F FOG     WCI  23
WEBSTER CITY * CLOUDY    30  30 100 NW15      29.71R FOG     WCI  19
IOWA FALLS *   FOG       35  34  97 NW9       29.70S VSB 1   WCI  27
$$

IAZ007>011-017>019-026>030-037>042-050>054-066-192300-
   NORTHEAST IOWA

CITY           SKY/WX    TMP DP  RH WIND       PRES   REMARKS
CEDAR RAPIDS   CLOUDY    49  48  97 CALM      29.66S FOG
CHARLES CITY * FOG       34  34 100 NE9       29.69F VSB 3/4 WCI  26
CLINTON *      LGT RAIN  53  52  96 MISG        N/A
DECORAH *      FOG       36  36 100 NE6       29.69R VSB 1   WCI  31
DUBUQUE        FOG       37  36  96 NE7       29.68R VSB<1/4 WCI  32
MONTICELLO *   LGT RAIN  37  37 100 N8        29.68R VSB<1/4 WCI  31
OELWEIN *      FOG       37  37 100 E7        29.66F VSB 1/4 WCI  32
WATERLOO       FOG       37  37 100 NW3       29.68R VSB 1/4
$$

IAZ064-065-067-068-078-192300-
   EAST CENTRAL IOWA

CITY           SKY/WX    TMP DP  RH WIND       PRES   REMARKS
DAVENPORT      PTSUNNY   62  55  77 S21       29.69S
IOWA CITY      CLOUDY    51  49  92 CALM      29.69R FOG
MT. PLEASANT * CLOUDY    63  59  88 S16       29.69R
MUSCATINE *    CLOUDY    61  57  88 SW14G21   29.68R
QUAD CITIES    FAIR      63  56  78 S18G29    29.67S
$$

IAZ062-063-075>077-085>089-095>099-192300-
   SOUTHEAST IOWA

CITY           SKY/WX    TMP DP  RH WIND       PRES   REMARKS
BURLINGTON     CLOUDY    60  57  89 S17G24    29.70S
FAIRFIELD *    CLOUDY    52  52 100 SW5       29.69R
FORT MADISON * DRIZZLE   61  59  94 S13       29.73R
KEOKUK *       CLOUDY    61  59  94 S18G25    29.72R
OSKALOOSA *    FOG       39  38  97 W13       29.71R VSB 1/4 WCI  31
OTTUMWA        LGT RAIN  42  40  92 W9        29.71R
WASHINGTON *     N/A     52  52 100 W6        29.70R
$$

ABBREVIATIONS USED IN REMARKS
   TC - TEMPERATURES IN CELSIUS
  WCI - WIND CHILL INDEX
   HX - HEAT INDEX
  VSB - VISIBILITY
$$





USA.gov is the U.S. government's official web portal to all federal, state and local government web resources and services.